DW8016 Weather Reports


time (UTC)temp
C
wind
direction
speed
KPH
gust
KPH
rain 1hr
cm
rain 24hr
cm
rain mn
cm
humidity
%
barometer
mb
20260503203453 18 246 4.8 12.9 0.00 0.00 0.00 28 1013.3
20260503202438 18 224 4.8 20.9 0.00 0.00 0.00 27 1013.5
20260503201432 18 313 4.8 20.9 0.00 0.00 0.00 28 1013.6
20260503200429 18 306 4.8 20.9 0.00 0.00 0.00 28 1013.8
20260503195448 18 302 4.8 20.9 0.00 0.00 0.00 28 1013.8
20260503194513 18 287 4.8 14.5 0.00 0.00 0.00 28 1014.0
20260503193528 17 266 4.8 19.3 0.00 0.00 0.00 29 1014.0
20260503192542 17 317 4.8 19.3 0.00 0.00 0.00 29 1014.2
20260503190345 18 323 6.4 17.7 0.00 0.00 0.00 27 1014.6
20260503185327 18 304 3.2 17.7 0.00 0.00 0.00 30 1014.6
20260503184343 18 26 6.4 17.7 0.00 0.00 0.00 30 1014.8
20260503183402 17 291 6.4 16.1 0.00 0.00 0.00 30 1015.0
20260503181158 17 306 3.2 12.9 0.00 0.00 0.00 31 1014.9
20260503173934 17 260 6.4 16.1 0.00 0.00 0.00 28 1015.2
20260503171746 17 309 3.2 12.9 0.00 0.00 0.00 31 1015.5
20260503150409 14 262 4.8 14.5 0.00 0.00 0.00 35 1016.1
20260503131052 11 310 4.8 12.9 0.00 0.00 0.00 45 1016.5
20260503110817 6 306 1.6 6.4 0.00 0.00 0.00 68 1015.6
20260503090504 6 302 1.6 6.4 0.00 0.00 0.00 68 1013.9
20260503080252 6 304 0.0 4.8 0.00 0.00 0.00 66 1013.7
20260503072327 6 303 1.6 6.4 0.00 0.00 0.00 66 1013.3
20260503070110 6 296 0.0 4.8 0.00 0.00 0.00 65 1013.1
20260503054803 7 275 0.0 0.0 0.00 0.00 0.00 63 1012.8
20260503053741 7 274 0.0 3.2 0.00 0.00 0.00 62 1012.8
20260503052743 8 339 0.0 1.6 0.00 0.00 0.00 62 1012.8
20260503051714 8 339 0.0 0.0 0.00 0.00 0.00 62 1012.9
20260503050704 8 339 0.0 1.6 0.00 0.00 0.00 60 1013.0
20260503044555 9 339 0.0 0.0 0.00 0.00 0.00 58 1013.1
20260503043616 9 339 0.0 0.0 0.00 0.00 0.00 57 1013.1
20260503042543 9 339 0.0 0.0 0.00 0.00 0.00 56 1013.2
20260503041559 10 339 0.0 0.0 0.00 0.00 0.00 55 1013.1
20260503035503 10 345 0.0 8.0 0.00 0.00 0.00 54 1013.1
20260503034507 10 5 0.0 8.0 0.00 0.00 0.00 54 1013.0
20260503033527 11 355 1.6 8.0 0.00 0.00 0.00 52 1012.9
20260503032501 11 338 0.0 4.8 0.00 0.00 0.00 52 1012.8
20260503031509 11 332 0.0 4.8 0.00 0.00 0.00 52 1012.8
20260503030519 11 332 0.0 1.6 0.00 0.00 0.00 51 1012.8
20260503025511 11 332 0.0 4.8 0.00 0.00 0.00 50 1012.8
20260503024516 11 13 0.0 6.4 0.00 0.00 0.00 50 1012.8
20260503023500 11 334 0.0 6.4 0.00 0.00 0.00 50 1012.8
20260503021339 11 286 0.0 1.6 0.00 0.00 0.00 51 1012.7
20260503020403 11 286 0.0 0.0 0.00 0.00 0.00 52 1012.6
20260503015423 11 286 0.0 0.0 0.00 0.00 0.00 54 1012.6
20260503014418 11 286 0.0 0.0 0.00 0.00 0.00 54 1012.4
20260503013410 11 286 0.0 0.0 0.00 0.00 0.00 54 1012.4
20260503012340 11 286 0.0 0.0 0.00 0.00 0.00 54 1012.3
20260503011307 11 286 0.0 0.0 0.00 0.00 0.00 52 1012.2
20260503005137 12 286 0.0 0.0 0.00 0.00 0.00 50 1011.8
20260503004152 12 286 0.0 0.0 0.00 0.00 0.00 49 1011.7
20260503003132 12 286 0.0 0.0 0.00 0.00 0.00 48 1011.7
20260503002112 12 286 0.0 0.0 0.00 0.00 0.00 48 1011.6
20260503001123 13 286 0.0 0.0 0.00 0.00 0.00 46 1011.4
20260503000136 13 347 0.0 6.4 0.00 0.00 0.00 45 1011.2
20260502235103 13 346 0.0 3.2 0.00 0.00 0.00 45 1011.1
20260502234044 13 346 0.0 4.8 0.00 0.00 0.00 45 1011.0
20260502233050 13 346 0.0 4.8 0.00 0.00 0.00 44 1011.0
20260502232045 13 346 0.0 6.4 0.00 0.00 0.00 45 1010.8
20260502231043 13 5 0.0 4.8 0.00 0.00 0.00 44 1011.0
20260502230050 13 344 0.0 4.8 0.00 0.00 0.00 42 1010.9
20260502225111 14 344 0.0 6.4 0.00 0.00 0.00 44 1010.9
20260502224122 14 344 0.0 4.8 0.00 0.00 0.00 43 1010.8
20260502223121 14 336 0.0 0.0 0.00 0.00 0.00 43 1010.7
20260502220944 15 317 0.0 4.8 0.00 0.00 0.00 41 1010.9
20260502215913 15 317 0.0 6.4 0.00 0.00 0.00 41 1010.9
20260502214907 15 355 0.0 8.0 0.00 0.00 0.00 40 1010.9
20260502213835 15 336 1.6 11.3 0.00 0.00 0.00 39 1010.7
20260502212855 16 292 1.6 14.5 0.00 0.00 0.00 38 1010.7
20260502211833 16 5 3.2 14.5 0.00 0.00 0.00 37 1010.6
20260502210806 16 290 1.6 12.9 0.00 0.00 0.00 34 1010.6
20260502205801 16 337 1.6 12.9 0.00 0.00 0.00 34 1010.5
20260502204815 16 348 1.6 9.7 0.00 0.00 0.00 35 1010.5